sat.trackr.live / text

‹ back to catalog

IRIDIUM 112

NORAD 41925 · 2017-003J

PAYLOAD ACTIVE UNKNOWN

§ Identity

Operator
Country
US
Launch date
2017-01-14
Launch site
AFWTR
Launch vehicle
Mass (kg)
RCS (m²)
2.65

Purposes: comms

External: N2YO · Heavens-Above · Gunter

§ Orbital elements

Epoch: 2026-09-20T03:47:54.305088Z

Period
100.40 min
Inclination
86.3947°
Eccentricity
0.0002167
Mean motion
14.34217775 rev/d
Perigee alt
776.1 km
Apogee alt
779.2 km
Semi-major
7,155.8 km
B*
2.5608e-5
RAAN
48.5643°
Arg perigee
92.9589°
Mean anomaly
267.1854°
Rev number
50,688

§ Raw data

IRIDIUM 1121 41925U 17003J   26263.15826742  .00000091  00000+0  25608-4 0  99902 41925  86.3947  48.5643 0002167  92.9589 267.1854 14.34217775506889

JSON: /api/v1/satellites/41925 · /tle

For live sub-satellite position, see the globe view (requires WebGL).

§ Visibility from observer

Set your observer location to see the next 7 days of passes ≥ 10°. The values pass through the URL so the page stays shareable.

No JS? Fill the form by hand. The geolocation button needs JavaScript.